NUSANTARA TIGA (SATRIA)

Last updated on Tue Sep 16 2025 00:02:51 GMT+0000 (Coordinated Universal Time)

1 57045U 23086A 25257.32886375 -.00000247 00000+0 00000+0 0 9995 2 57045 0.0094 9.1237 0002510 279.4101 329.4122 1.00268522 6993
UTC large
Height (km)
Speed (km/s)
/
Latitude / Longitude
Inclination (degrees)
Orbital Period (minutes)
Azimuth
Elevation
Range (km)
Doppler Factor

Next 0 passes for location: London (51.5072 / 0.1276)

Sorry there are no passes over London.